Regional Weather Roundup
Issued by NWS Grand Forks, ND

Home | Current Version | Previous Version | Graphics & Text | Print | Product List | Glossary On
Versions: 1 2 3 4 5 6 7 8 9 10 11 12 13 14 15 16 17 18 19 20 21 22 23 24 25 26 27 28 29 30 31 32 33 34 35 36 37 38 39 40 41 42 43 44 45 46 47 48 49 50
000
ASUS43 KFGF 311031
RWRFGF
PRAIRIE TO PINES  WEATHER ROUNDUP
NATIONAL WEATHER SERVICE EASTERN NORTH DAKOTA/GRAND FORKS ND
500 AM CDT MON AUG 31 2015

 **SATELLITE DATA USED TO AUGMENT SKY COVER AT AUTOMATED STATIONS**
 *****  WEATHER ACROSS EASTERN NORTH DAKOTA  *****

CITY           SKY/WX    TMP DP  RH WIND       PRES   REMARKS
GRAND FORKS    PTCLDY    66  62  87 S10       29.64S
GRAND FRKS AFB PTCLDY    65  64  94 S7        29.64S
GRAND FRKS NWS   N/A     64 N/A N/A S10         N/A
DEVILS LAKE    CLOUDY    70  63  78 N6        29.60F
FARGO          CLEAR     67  59  75 S15       29.67F
WAHPETON ARPT  SUNNY     63  57  82 S15       29.72S
$$

 ***** WEATHER ACROSS CENTRAL AND WESTERN NORTH DAKOTA  *****

CITY           SKY/WX    TMP DP  RH WIND       PRES   REMARKS
BISMARCK       CLOUDY    70  60  70 N7        29.65R HAZE
MINOT          LGT RAIN  62  58  86 N6        29.68F
JAMESTOWN      MOCLDY    67  63  87 S16       29.64R
MINOT AFB      TSTM      63  63 100 CALM      29.69F
GARRISON         N/A     63  57  81 N8        29.70R
WILLISTON        N/A    N/A N/A N/A MISG      29.77R
DICKINSON      MOCLDY    62  56  80 NW8       29.76R
HETTINGER      MOCLDY    64  49  57 N9        29.75F
$$

 *****  OTHER AIRPORT OBSERVATIONS IN OUR AREA  *****

CITY           SKY/WX    TMP DP  RH WIND       PRES   REMARKS
WALHALLA       LGT RAIN  68  68 100 MISG      29.60F
GRAFTON AIRPOR FAIR      66  66 100 S9        29.63S
VALLEY CITY AR FAIR      66  66 100 S13       29.65R
CANDO          FAIR      64  59  82 NE10      29.61F
CAVALIER APRT  FAIR      68  66  94 S3        29.62S
GWINNER        FAIR      72  61  68 S20G25    29.67F
SHEYENNE NWR     N/A     60  58  94 SE7       29.95S
ROLLA          PTSUNNY   63  57  82 N8        29.65F
 ***** THE ABOVE OBSERVATIONS ARE NON NWS ARE NOT QUALITY
       CONTROLLED AND MAY MIS-REPORT RAIN FOR SNOW...
$$

  *****  WEATHER ACROSS NORTHERN MINNESOTA  *****

CITY           SKY/WX    TMP DP  RH WIND       PRES   REMARKS
FLAG ISLAND    CLEAR     68  64  88 S9        29.66S
WARROAD        CLEAR     66  63  88 S5        29.67F
ROSEAU         CLEAR     66  61  82 S10       29.65F
HALLOCK        PTCLDY    68  64  88 S12       29.63S
THF RVR FALLS  CLEAR    N/A N/A N/A S8        29.68S
BAUDETTE       PTCLDY    66  60  81 S8        29.70F
WASKISH        CLEAR     64  61  88 S8        29.72F
CROOKSTON      PTCLDY    66  61  82 S12       29.68S
STEPHEN NDAWN    N/A     66  63  88 S13         N/A
GREENBUSH NDAW   N/A     68  63  83 S10         N/A
$$
  *****  WEATHER ACROSS CENTRAL AND WEST MINNESOTA  *****

CITY           SKY/WX    TMP DP  RH WIND       PRES   REMARKS
FOSSTON        CLEAR     64  55  72 S10       29.71F
BEMIDJI        CLEAR     64  59  83 S12       29.76S
PARK RAPIDS    CLEAR     64  60  87 S13       29.79F
ELBOW LAKE     FAIR      64  60  87 S15G21    29.77F
WADENA         CLEAR     63  61  94 S5        29.80F FOG
DETROIT LAKES  CLEAR     66  59  77 S14       29.76F
MOORHEAD       CLEAR     66  61  82 S17       29.69F
FERGUS FALLS   CLEAR     66  61  82 S18G24    29.75S
MORRIS MN      PTCLDY    63  63 100 SE13      29.79F FOG
STAPLES        CLEAR     63  61  94 S9        29.82F
$$
  *****  WEATHER ELSEWHERE ACROSS MINNESOTA  *****

CITY           SKY/WX    TMP DP  RH WIND       PRES   REMARKS
DULUTH         MOCLDY    64  62  93 S9        29.89S
INTRNTL FALLS  PTCLDY    65  62  90 VRB5      29.75F
ELY            CLEAR     64  61  88 S3        29.85S
CLOQUET        CLOUDY    64  63  94 S8        29.89S
WHEATON        CLEAR     63  57  82 SE12      29.75F
BRAINERD       PTCLDY    63  62  97 S9        29.85S FOG
HIBBING        CLOUDY    64  63  96 VRB5      29.86S
ALEXANDRIA     CLEAR     65  62  90 S12       29.84F
SAINT CLOUD    PTCLDY    64  64 100 S9        29.88S FOG
MINNEAPOLIS    MOCLDY    63  62  97 SE7       29.93S
$$

  *****  WEATHER ACROSS SOUTH DAKOTA  *****

CITY           SKY/WX    TMP DP  RH WIND       PRES   REMARKS
SIOUX FALLS    PTCLDY    65  63  93 S10       29.89S
BROOKINGS      PTCLDY    64  61  88 S12G17    29.89R
WATERTOWN      CLEAR     64  61  90 S14       29.81F
HURON          CLEAR     66  63  90 S12       29.77S
SISSETON         N/A     73  59  61 SW23G35   29.69F
ABERDEEN       CLEAR     67  62  84 S15G26    29.70F
MITCHELL       CLEAR     65  63  93 SE9       29.82F
PIERRE         MOCLDY    71  57  61 SE10      29.67F
MOBRIDGE       CLOUDY    74  57  55 VRB7      29.64R
RAPID CITY     CLOUDY    74  51  44 W10       29.77F
$$

  *****  SOME WEATHER IN NEARBY STATES *****

CITY           SKY/WX    TMP DP  RH WIND       PRES   REMARKS
GLASGOW MT     PTCLDY    54  51  90 W9        29.81R
GREAT FALLS MT FAIR      52  33  48 SW20      29.90F
CHEYENNE WY    CLOUDY    70  46  42 W24G32    30.08R
SCOTTSBLUFF NE CLOUDY    68  56  65 N6        29.92R
OMAHA NE       PTCLDY    66  65  96 S5        29.94F
DES MOINES IA  PTCLDY    69  65  86 SE6       29.97F
DAVENPORT IA   CLEAR     61  60  97 E5        30.03S FOG
CHICAGO IL     FOG       62  62 100 CALM      30.04S VSB 1/8
EAU CLAIRE WI  CLEAR     58  57  97 CALM      29.97S FOG
LA CROSSE WI   CLOUDY    65  63  93 SE8       29.99S
$$

  *****  SOME NATIONAL WEATHER *****

CITY           SKY/WX    TMP DP  RH WIND       PRES   REMARKS
LA GUARDIA NY  MOCLDY    77  67  71 SW5       30.00S
RALEIGH NC     HVY RAIN  70  66  88 NE5       30.11F FOG
ATLANTA GA     CLOUDY    66  64  94 E9        30.10R
NEW ORLEANS LA PTCLDY    76  69  79 CALM      30.00S
OKLAHOMA CITY  PTCLDY    68  64  87 S6        29.95S
ALBUQUERQUE NM CLEAR     68  48  48 E7        30.14R
SALT LAKE CITY MOCLDY    66  44  45 NE9       30.03R
LOS ANGELES CA FAIR      69  64  84 SE5       29.84S
BOISE ID       FAIR      57  44  62 CALM      30.06R
SEATTLE WA     CLOUDY    63  49  60 S14       29.98F
$$

*** WEATHER ACROSS MANITOBA...SASKATCHEWAN AND ONTARIO ***
                ***ONTARIO***

CITY           SKY/WX    TMP DP  RH WIND       PRES   REMARKS
GERALDTON      FOG       61  61 100 E8        29.89S VSB 1/8
THUNDER BAY    PTCLDY    57  55  94 NE6       29.87S
SIOUX LOOKOUT  MOCLDY    66  64  94 S8        29.74S
TORONTO        PTCLDY    64  63  94 W5        30.00S
BIG TROUT LK   CLOUDY    50  48  93 SE9G17    29.81F
PICKLE LAKE    NOT AVBL
DRYDEN         CLEAR     68  63  83 S12       29.72F
KENORA         PTCLDY    68  64  88 S9        29.68F
$$
                *** MANITOBA***

CITY           SKY/WX    TMP DP  RH WIND       PRES   REMARKS
BRANDON        CLOUDY    61  57  88 W5        29.66F
DAUPHIN        PTCLDY    64  55  72 SW7       29.60R
ISLAND LAKE    CLOUDY    63  59  88 SE12G17   29.54F
PILOT MOUND      N/A     64  59  82 N9          N/A
THE PAS        PTCLDY    57  55  94 SE8       29.49F
THOMPSON       DRIZZLE   55  55 100 VRB2      29.57F
WINNIPEG       LGT RAIN  68  68 100 S5        29.60F
LYNN LAKE      FOG       57  57 100 MISG      29.50F VSB 3/4
CHURCHILL      LGT RAIN  46  45  93 SE18      29.79F
$$
                ***SASKATCHEWAN***

CITY           SKY/WX    TMP DP  RH WIND       PRES   REMARKS
ESTEVAN        CLOUDY    59  54  82 W20G30    29.77R
KINDERSLEY     PTCLDY    52  39  62 W17       29.57F
LLOYDMINSTER   CLEAR     54  45  71 W10       29.51R
PRINCE ALBERT  CLOUDY    57  45  62 SW8       29.50F
REGINA         LGT RAIN  57  54  88 SW15      29.71F
YORKTON        MOCLDY    63  52  67 SW15G21   29.61R
N. BATTLEFORD    N/A     54  43  66 S9        29.51F
LA RONGE       CLEAR     50  48  93 CALM      29.45S
SASKATOON      MOCLDY    61  41  48 SW17G24   29.55
SWIFT CURRENT  CLEAR     55  37  50 SW20G25   29.67F
$$
NOTE: THESE ARE AUTOMATED STATIONS WITH LIMITED QUALITY CONTROL
      "FAIR" INDICATES FEW OR NO CLOUDS BELOW 12,000 FEET WITH NO
      SIGNIFICANT WEATHER AND/OR OBSTRUCTIONS TO VISIBILITY.
      SKY/WX - SKY CONDITION AND SIGNIFICANT WEATHER.
      TMP - AIR TEMPERATURE.    DP   - DEWPOINT TEMPERATURE.
      RH  - RELATIVE HUMIDITY.  PRES - PRESSURE.
      HX  - HEAT INDEX.         WCI  - WIND CHILL INDEX.
$


USA.gov is the U.S. government's official web portal to all federal, state and local government web resources and services.